Flag for Austria Weather past 2 weeks in Bad Radkersburg, Styria, Austria

Now
60 °F

Fog.


Feels Like: 60 °F
Forecast: 37 / 57 °F
Wind: No wind

Location: Murska Sobota

Current Time: Oct 21, 2014 at 10:48:15 AM

Latest Report: Oct 21, 2014 at 10:00 AM


Visibility: 1 mi

Pressure: 29.92 "Hg

Humidity: 93%

Dew point: 58 °F

Location of Bad RadkersburgLocation

Historic Weather in Bad Radkersburg — Graph

°F

Bad Radkersburg temperature yesterday

Maximum temperature yesterday: 75 °F (at 4:00 PM)
Minimum temperature yesterday: 46 °F (at 7:00 AM)
Average temperature yesterday: 60 °F

Past Weeks' High & Low Weather Summary

 TemperatureHumidityPressure
High79 °F (Oct 10, 1:00 PM)100% (Oct 7, 1:00 AM)30.35 "Hg (Oct 7, 1:00 AM)
Low45 °F (Oct 18, 7:00 AM)44% (Oct 14, 3:00 PM)29.75 "Hg (Oct 15, 4:00 PM)
Average62 °F82%29.99 "Hg
* Reported Oct 6 9:00 AM — Oct 21 9:00 AM, Bad Radkersburg, Weather by CustomWeather, © 2014

Note: Actual official high and low records may vary slightly from our data, if they occured in-between our weather recording intervals... More about our weather records

Advertising

Bad Radkersburg weather history for previous 24 hours

 ConditionsComfort  
Time TempWeatherWind HumidityBarometerVisibility
9:00 AM
Oct 21
57 °FFog.1 mph98%29.91 "Hg1 mi
8:00 AM57 °FFog.1 mph98%29.92 "Hg1 mi
7:00 AM56 °FFog.No wind99%29.93 "Hg1 mi
6:00 AM56 °FFog.1 mph100%29.93 "Hg4 mi
5:00 AM54 °FFog.1 mph100%29.94 "Hg4 mi
4:00 AM52 °FCool.2 mph99%29.93 "HgN/A
3:00 AM53 °FCool.1 mph98%29.93 "HgN/A
2:00 AM55 °FCool.1 mph98%29.93 "HgN/A
1:00 AM56 °FCool.1 mph97%29.95 "HgN/A
12:00 AM57 °FCool.1 mph94%29.94 "HgN/A
11:00 PM
Oct 20
59 °FCool.1 mph93%29.95 "HgN/A
10:00 PM62 °FCool.1 mph86%29.96 "HgN/A
9:00 PM64 °FMild.1 mph83%29.97 "HgN/A
8:00 PM64 °FPassing clouds.1 mph84%29.98 "Hg6 mi
7:00 PM65 °FMild.1 mph84%30.00 "HgN/A
6:00 PM69 °FMild.1 mph74%30.00 "HgN/A
5:00 PM73 °FMild.1 mph64%30.01 "HgN/A
4:00 PM75 °FMild.2 mph60%30.01 "HgN/A
3:00 PM75 °FScattered clouds.2 mph58%30.03 "Hg25 mi
2:00 PM74 °FScattered clouds.2 mph61%30.06 "Hg25 mi
1:00 PM71 °FPartly sunny.1 mph64%30.08 "Hg19 mi
12:00 PM68 °FPartly sunny.1 mph69%30.10 "Hg12 mi
11:00 AM63 °FPartly sunny.1 mph75%30.12 "Hg12 mi
10:00 AM57 °FScattered clouds.1 mph89%30.14 "Hg6 mi
Weather by CustomWeather, © 2014

See weather overviewHow to use our weather pages